Year,Month,Day,Hour,Minute,Value (Times are PST for temperature in C)
2021,04,18,00,00,11.60
2021,04,18,00,01,11.60
2021,04,18,00,02,11.60
2021,04,18,00,03,11.60
2021,04,18,00,04,11.60
2021,04,18,00,05,11.60
2021,04,18,00,06,11.50
2021,04,18,00,07,11.50
2021,04,18,00,08,11.50
2021,04,18,00,09,11.50
2021,04,18,00,10,11.50
2021,04,18,00,11,11.50
2021,04,18,00,12,11.40
2021,04,18,00,13,11.40
2021,04,18,00,14,11.40
2021,04,18,00,15,11.40
2021,04,18,00,16,11.40
2021,04,18,00,17,11.40
2021,04,18,00,18,11.40
2021,04,18,00,19,11.40
2021,04,18,00,20,11.40
2021,04,18,00,21,11.40
2021,04,18,00,22,11.40
2021,04,18,00,23,11.30
2021,04,18,00,24,11.30
2021,04,18,00,25,11.30
2021,04,18,00,26,11.30
2021,04,18,00,27,11.30
2021,04,18,00,28,11.30
2021,04,18,00,29,11.30
2021,04,18,00,30,11.30
2021,04,18,00,31,11.30
2021,04,18,00,32,11.30
2021,04,18,00,33,11.30
2021,04,18,00,34,11.30
2021,04,18,00,35,11.30
2021,04,18,00,36,11.30
2021,04,18,00,37,11.30
2021,04,18,00,38,11.30
2021,04,18,00,39,11.20
2021,04,18,00,40,11.20
2021,04,18,00,41,11.20
2021,04,18,00,42,11.20
2021,04,18,00,43,11.20
2021,04,18,00,44,11.20
2021,04,18,00,45,11.20
2021,04,18,00,46,11.20
2021,04,18,00,47,11.20
2021,04,18,00,48,11.20
2021,04,18,00,49,11.20
2021,04,18,00,50,11.20
2021,04,18,00,51,11.20
2021,04,18,00,52,11.20
2021,04,18,00,53,11.20
2021,04,18,00,54,11.20
2021,04,18,00,55,11.20
2021,04,18,00,56,11.20
2021,04,18,00,57,11.20
2021,04,18,00,58,11.20
2021,04,18,00,59,11.20
2021,04,18,01,00,11.20
2021,04,18,01,01,11.20
2021,04,18,01,02,11.20
2021,04,18,01,03,11.20
2021,04,18,01,04,11.20
2021,04,18,01,05,11.20
2021,04,18,01,06,11.20
2021,04,18,01,07,11.10
2021,04,18,01,08,11.10
2021,04,18,01,09,11.10
2021,04,18,01,10,11.10
2021,04,18,01,11,11.10
2021,04,18,01,12,11.10
2021,04,18,01,13,11.10
2021,04,18,01,14,11.10
2021,04,18,01,15,11.10
2021,04,18,01,16,11.10
2021,04,18,01,17,11.10
2021,04,18,01,18,11.10
2021,04,18,01,19,11.10
2021,04,18,01,20,11.10
2021,04,18,01,21,11.10
2021,04,18,01,22,11.10
2021,04,18,01,23,11.10
2021,04,18,01,24,11.10
2021,04,18,01,25,11.00
2021,04,18,01,26,11.00
2021,04,18,01,27,11.00
2021,04,18,01,28,11.00
2021,04,18,01,29,11.00
2021,04,18,01,30,11.00
2021,04,18,01,31,11.00
2021,04,18,01,32,11.00
2021,04,18,01,33,11.00
2021,04,18,01,34,11.00
2021,04,18,01,35,11.00
2021,04,18,01,36,11.00
2021,04,18,01,37,11.00
2021,04,18,01,38,11.00
2021,04,18,01,39,11.00
2021,04,18,01,40,11.00
2021,04,18,01,41,11.00
2021,04,18,01,42,11.00
2021,04,18,01,43,10.90
2021,04,18,01,44,10.90
2021,04,18,01,45,11.00
2021,04,18,01,46,10.90
2021,04,18,01,47,10.90
2021,04,18,01,48,10.90
2021,04,18,01,49,10.90
2021,04,18,01,50,10.90
2021,04,18,01,51,10.90
2021,04,18,01,52,10.90
2021,04,18,01,53,10.90
2021,04,18,01,54,10.90
2021,04,18,01,55,10.90
2021,04,18,01,56,10.90
2021,04,18,01,57,10.90
2021,04,18,01,58,10.90
2021,04,18,01,59,10.90
2021,04,18,02,00,10.90
2021,04,18,02,01,10.90
2021,04,18,02,02,11.00
2021,04,18,02,03,11.00
2021,04,18,02,04,11.00
2021,04,18,02,05,11.00
2021,04,18,02,06,11.00
2021,04,18,02,07,10.90
2021,04,18,02,08,10.90
2021,04,18,02,09,10.90
2021,04,18,02,10,10.90
2021,04,18,02,11,10.90
2021,04,18,02,12,10.80
2021,04,18,02,13,10.80
2021,04,18,02,14,10.80
2021,04,18,02,15,10.80
2021,04,18,02,16,10.80
2021,04,18,02,17,10.70
2021,04,18,02,18,10.70
2021,04,18,02,19,10.70
2021,04,18,02,20,10.60
2021,04,18,02,21,10.60
2021,04,18,02,22,10.60
2021,04,18,02,23,10.50
2021,04,18,02,24,10.50
2021,04,18,02,25,10.50
2021,04,18,02,26,10.50
2021,04,18,02,27,10.40
2021,04,18,02,28,10.40
2021,04,18,02,29,10.40
2021,04,18,02,30,10.40
2021,04,18,02,31,10.40
2021,04,18,02,32,10.40
2021,04,18,02,33,10.40
2021,04,18,02,34,10.40
2021,04,18,02,35,10.40
2021,04,18,02,36,10.40
2021,04,18,02,37,10.30
2021,04,18,02,38,10.30
2021,04,18,02,39,10.30
2021,04,18,02,40,10.30
2021,04,18,02,41,10.30
2021,04,18,02,42,10.30
2021,04,18,02,43,10.30
2021,04,18,02,44,10.30
2021,04,18,02,45,10.30
2021,04,18,02,46,10.30
2021,04,18,02,47,10.30
2021,04,18,02,48,10.30
2021,04,18,02,49,10.30
2021,04,18,02,50,10.30
2021,04,18,02,51,10.30
2021,04,18,02,52,10.30
2021,04,18,02,53,10.30
2021,04,18,02,54,10.30
2021,04,18,02,55,10.30
2021,04,18,02,56,10.30
2021,04,18,02,57,10.30
2021,04,18,02,58,10.30
2021,04,18,02,59,10.30
2021,04,18,03,00,10.30
2021,04,18,03,01,10.30
2021,04,18,03,02,10.20
2021,04,18,03,03,10.20
2021,04,18,03,04,10.20
2021,04,18,03,05,10.20
2021,04,18,03,06,10.20
2021,04,18,03,07,10.20
2021,04,18,03,08,10.20
2021,04,18,03,09,10.20
2021,04,18,03,10,10.20
2021,04,18,03,11,10.20
2021,04,18,03,12,10.20
2021,04,18,03,13,10.20
2021,04,18,03,14,10.10
2021,04,18,03,15,10.10
2021,04,18,03,16,10.10
2021,04,18,03,17,10.10
2021,04,18,03,18,10.10
2021,04,18,03,19,10.10
2021,04,18,03,20,10.00
2021,04,18,03,21,10.00
2021,04,18,03,22,10.00
2021,04,18,03,23,10.00
2021,04,18,03,24,10.00
2021,04,18,03,25,10.00
2021,04,18,03,26,10.00
2021,04,18,03,27,10.00
2021,04,18,03,28,10.00
2021,04,18,03,29,10.00
2021,04,18,03,30,10.00
2021,04,18,03,31,10.00
2021,04,18,03,32,10.00
2021,04,18,03,33,10.00
2021,04,18,03,34,10.00
2021,04,18,03,35,10.00
2021,04,18,03,36,10.00
2021,04,18,03,37,10.00
2021,04,18,03,38,10.00
2021,04,18,03,39,10.00
2021,04,18,03,40,10.10
2021,04,18,03,41,10.00
2021,04,18,03,42,10.00
2021,04,18,03,43,10.00
2021,04,18,03,44,10.00
2021,04,18,03,45,10.00
2021,04,18,03,46,10.00
2021,04,18,03,47,10.00
2021,04,18,03,48,10.00
2021,04,18,03,49,10.00
2021,04,18,03,50,10.00
2021,04,18,03,51,10.00
2021,04,18,03,52,9.90
2021,04,18,03,53,9.90
2021,04,18,03,54,9.90
2021,04,18,03,55,9.90
2021,04,18,03,56,9.90
2021,04,18,03,57,9.90
2021,04,18,03,58,9.90
2021,04,18,03,59,9.90
2021,04,18,04,00,9.90
2021,04,18,04,01,9.90
2021,04,18,04,02,9.90
2021,04,18,04,03,10.00
2021,04,18,04,04,10.00
2021,04,18,04,05,10.00
2021,04,18,04,06,10.00
2021,04,18,04,07,10.00
2021,04,18,04,08,10.00
2021,04,18,04,09,10.00
2021,04,18,04,10,10.00
2021,04,18,04,11,10.00
2021,04,18,04,12,10.00
2021,04,18,04,13,10.00
2021,04,18,04,14,10.00
2021,04,18,04,15,10.00
2021,04,18,04,16,10.00
2021,04,18,04,17,10.00
2021,04,18,04,18,10.00
2021,04,18,04,19,10.00
2021,04,18,04,20,10.00
2021,04,18,04,21,10.00
2021,04,18,04,22,10.00
2021,04,18,04,23,9.90
2021,04,18,04,24,10.00
2021,04,18,04,25,10.00
2021,04,18,04,26,9.90
2021,04,18,04,27,9.90
2021,04,18,04,28,9.90
2021,04,18,04,29,9.90
2021,04,18,04,30,9.90
2021,04,18,04,31,9.90
2021,04,18,04,32,9.90
2021,04,18,04,33,9.90
2021,04,18,04,34,9.90
2021,04,18,04,35,9.90
2021,04,18,04,36,9.90
2021,04,18,04,37,9.90
2021,04,18,04,38,9.90
2021,04,18,04,39,9.90
2021,04,18,04,40,9.90
2021,04,18,04,41,9.90
2021,04,18,04,42,9.90
2021,04,18,04,43,9.90
2021,04,18,04,44,9.90
2021,04,18,04,45,9.90
2021,04,18,04,46,9.90
2021,04,18,04,47,9.90
2021,04,18,04,48,9.90
2021,04,18,04,49,9.90
2021,04,18,04,50,9.90
2021,04,18,04,51,9.90
2021,04,18,04,52,9.90
2021,04,18,04,53,9.90
2021,04,18,04,54,9.90
2021,04,18,04,55,9.90
2021,04,18,04,56,9.90
2021,04,18,04,57,9.90
2021,04,18,04,58,9.90
2021,04,18,04,59,9.90
2021,04,18,05,00,9.90
2021,04,18,05,01,9.80
2021,04,18,05,02,9.80
2021,04,18,05,03,9.80
2021,04,18,05,04,9.80
2021,04,18,05,05,9.80
2021,04,18,05,06,9.80
2021,04,18,05,07,9.80
2021,04,18,05,08,9.70
2021,04,18,05,09,9.70
2021,04,18,05,10,9.70
2021,04,18,05,11,9.70
2021,04,18,05,12,9.70
2021,04,18,05,13,9.70
2021,04,18,05,14,9.70
2021,04,18,05,15,9.70
2021,04,18,05,16,9.60
2021,04,18,05,17,9.60
2021,04,18,05,18,9.60
2021,04,18,05,19,9.60
2021,04,18,05,20,9.50
2021,04,18,05,21,9.50
2021,04,18,05,22,9.40
2021,04,18,05,23,9.40
2021,04,18,05,24,9.40
2021,04,18,05,25,9.40
2021,04,18,05,26,9.30
2021,04,18,05,27,9.30
2021,04,18,05,28,9.30
2021,04,18,05,29,9.30
2021,04,18,05,30,9.30
2021,04,18,05,31,9.30
2021,04,18,05,32,9.30
2021,04,18,05,33,9.30
2021,04,18,05,34,9.30
2021,04,18,05,35,9.30
2021,04,18,05,36,9.30
2021,04,18,05,37,9.30
2021,04,18,05,38,9.30
2021,04,18,05,39,9.30
2021,04,18,05,40,9.20
2021,04,18,05,41,9.20
2021,04,18,05,42,9.20
2021,04,18,05,43,9.20
2021,04,18,05,44,9.20
2021,04,18,05,45,9.20
2021,04,18,05,46,9.20
2021,04,18,05,47,9.10
2021,04,18,05,48,9.10
2021,04,18,05,49,9.10
2021,04,18,05,50,9.10
2021,04,18,05,51,9.10
2021,04,18,05,52,9.10
2021,04,18,05,53,9.10
2021,04,18,05,54,9.10
2021,04,18,05,55,9.00
2021,04,18,05,56,9.00
2021,04,18,05,57,9.00
2021,04,18,05,58,9.00
2021,04,18,05,59,8.90
2021,04,18,06,00,8.90
2021,04,18,06,01,8.90
2021,04,18,06,02,8.90
2021,04,18,06,03,8.80
2021,04,18,06,04,8.80
2021,04,18,06,05,8.80
2021,04,18,06,06,8.80
2021,04,18,06,07,8.80
2021,04,18,06,08,8.70
2021,04,18,06,09,8.70
2021,04,18,06,10,8.70
2021,04,18,06,11,8.70
2021,04,18,06,12,8.70
2021,04,18,06,13,8.70
2021,04,18,06,14,8.60
2021,04,18,06,15,8.60
2021,04,18,06,16,8.60
2021,04,18,06,17,8.60
2021,04,18,06,18,8.60
2021,04,18,06,19,8.60
2021,04,18,06,20,8.60
2021,04,18,06,21,8.60
2021,04,18,06,22,8.60
2021,04,18,06,23,8.60
2021,04,18,06,24,8.50
2021,04,18,06,25,8.50
2021,04,18,06,26,8.50
2021,04,18,06,27,8.50
2021,04,18,06,28,8.50
2021,04,18,06,29,8.40
2021,04,18,06,30,8.40
2021,04,18,06,31,8.40
2021,04,18,06,32,8.40
2021,04,18,06,33,8.40
2021,04,18,06,34,8.40
2021,04,18,06,35,8.40
2021,04,18,06,36,8.40
2021,04,18,06,37,8.40
2021,04,18,06,38,8.30
2021,04,18,06,39,8.30
2021,04,18,06,40,8.30
2021,04,18,06,41,8.30
2021,04,18,06,42,8.30
2021,04,18,06,43,8.30
2021,04,18,06,44,8.30
2021,04,18,06,45,8.30
2021,04,18,06,46,8.30
2021,04,18,06,47,8.30
2021,04,18,06,48,8.20
2021,04,18,06,49,8.20
2021,04,18,06,50,8.20
2021,04,18,06,51,8.20
2021,04,18,06,52,8.20
2021,04,18,06,53,8.20
2021,04,18,06,54,8.20
2021,04,18,06,55,8.20
2021,04,18,06,56,8.20
2021,04,18,06,57,8.20
2021,04,18,06,58,8.20
2021,04,18,06,59,8.20
2021,04,18,07,00,8.20
2021,04,18,07,01,8.20
2021,04,18,07,02,8.20
2021,04,18,07,03,8.20
2021,04,18,07,04,8.20
2021,04,18,07,05,8.20
2021,04,18,07,06,8.20
2021,04,18,07,07,8.20
2021,04,18,07,08,8.20
2021,04,18,07,09,8.20
2021,04,18,07,10,8.20
2021,04,18,07,11,8.20
2021,04,18,07,12,8.20
2021,04,18,07,13,8.20
2021,04,18,07,14,8.20
2021,04,18,07,15,8.20
2021,04,18,07,16,8.20
2021,04,18,07,17,8.20
2021,04,18,07,18,8.20
2021,04,18,07,19,8.20
2021,04,18,07,20,8.20
2021,04,18,07,21,8.20
2021,04,18,07,22,8.20
2021,04,18,07,23,8.20
2021,04,18,07,24,8.30
2021,04,18,07,25,8.30
2021,04,18,07,26,8.30
2021,04,18,07,27,8.30
2021,04,18,07,28,8.30
2021,04,18,07,29,8.40
2021,04,18,07,30,8.40
2021,04,18,07,31,8.40
2021,04,18,07,32,8.50
2021,04,18,07,33,8.50
2021,04,18,07,34,8.50
2021,04,18,07,35,8.60
2021,04,18,07,36,8.60
2021,04,18,07,37,8.70
2021,04,18,07,38,8.70
2021,04,18,07,39,8.70
2021,04,18,07,40,8.70
2021,04,18,07,41,8.80
2021,04,18,07,42,8.80
2021,04,18,07,43,8.80
2021,04,18,07,44,8.90
2021,04,18,07,45,8.90
2021,04,18,07,46,9.00
2021,04,18,07,47,9.00
2021,04,18,07,48,9.10
2021,04,18,07,49,9.10
2021,04,18,07,50,9.10
2021,04,18,07,51,9.20
2021,04,18,07,52,9.20
2021,04,18,07,53,9.20
2021,04,18,07,54,9.30
2021,04,18,07,55,9.30
2021,04,18,07,56,9.30
2021,04,18,07,57,9.40
2021,04,18,07,58,9.40
2021,04,18,07,59,9.40
2021,04,18,08,00,9.50
2021,04,18,08,01,9.50
2021,04,18,08,02,9.60
2021,04,18,08,03,9.60
2021,04,18,08,04,9.60
2021,04,18,08,05,9.70
2021,04,18,08,06,9.70
2021,04,18,08,07,9.80
2021,04,18,08,08,9.80
2021,04,18,08,09,9.80
2021,04,18,08,10,9.90
2021,04,18,08,11,9.90
2021,04,18,08,12,10.00
2021,04,18,08,13,10.10
2021,04,18,08,14,10.20
2021,04,18,08,15,10.30
2021,04,18,08,16,10.40
2021,04,18,08,17,10.50
2021,04,18,08,18,10.60
2021,04,18,08,19,10.70
2021,04,18,08,20,10.80
2021,04,18,08,21,10.90
2021,04,18,08,22,11.00
2021,04,18,08,23,11.20
2021,04,18,08,24,11.30
2021,04,18,08,25,11.50
2021,04,18,08,26,11.70
2021,04,18,08,27,11.80
2021,04,18,08,28,12.00
2021,04,18,08,29,12.20
2021,04,18,08,30,12.40
2021,04,18,08,31,12.60
2021,04,18,08,32,12.80
2021,04,18,08,33,13.00
2021,04,18,08,34,13.10
2021,04,18,08,35,13.30
2021,04,18,08,36,13.40
2021,04,18,08,37,13.60
2021,04,18,08,38,13.70
2021,04,18,08,39,13.80
2021,04,18,08,40,13.90
2021,04,18,08,41,14.00
2021,04,18,08,42,14.10
2021,04,18,08,43,14.30
2021,04,18,08,44,14.40
2021,04,18,08,45,14.50
2021,04,18,08,46,14.60
2021,04,18,08,47,14.80
2021,04,18,08,48,15.00
2021,04,18,08,49,15.10
2021,04,18,08,50,15.30
2021,04,18,08,51,15.40
2021,04,18,08,52,15.60
2021,04,18,08,53,15.70
2021,04,18,08,54,15.80
2021,04,18,08,55,16.00
2021,04,18,08,56,16.10
2021,04,18,08,57,16.20
2021,04,18,08,58,16.30
2021,04,18,08,59,16.40
2021,04,18,09,00,16.50
2021,04,18,09,01,16.60
2021,04,18,09,02,16.70
2021,04,18,09,03,16.80
2021,04,18,09,04,16.90
2021,04,18,09,05,17.00
2021,04,18,09,06,17.10
2021,04,18,09,07,17.10
2021,04,18,09,08,17.20
2021,04,18,09,09,17.20
2021,04,18,09,10,17.30
2021,04,18,09,11,17.20
2021,04,18,09,12,17.30
2021,04,18,09,13,17.30
2021,04,18,09,14,17.30
2021,04,18,09,15,17.40
2021,04,18,09,16,17.40
2021,04,18,09,17,17.50
2021,04,18,09,18,17.70
2021,04,18,09,19,17.80
2021,04,18,09,20,17.90
2021,04,18,09,21,18.00
2021,04,18,09,22,18.10
2021,04,18,09,23,18.10
2021,04,18,09,24,18.10
2021,04,18,09,25,18.10
2021,04,18,09,26,18.10
2021,04,18,09,27,18.20
2021,04,18,09,28,18.30
2021,04,18,09,29,18.30
2021,04,18,09,30,18.40
2021,04,18,09,31,18.40
2021,04,18,09,32,18.50
2021,04,18,09,33,18.60
2021,04,18,09,34,18.60
2021,04,18,09,35,18.60
2021,04,18,09,36,18.60
2021,04,18,09,37,18.70
2021,04,18,09,38,18.70
2021,04,18,09,39,18.70
2021,04,18,09,40,18.80
2021,04,18,09,41,18.80
2021,04,18,09,42,18.80
2021,04,18,09,43,18.80
2021,04,18,09,44,18.90
2021,04,18,09,45,18.90
2021,04,18,09,46,19.00
2021,04,18,09,47,19.10
2021,04,18,09,48,19.20
2021,04,18,09,49,19.20
2021,04,18,09,50,19.30
2021,04,18,09,51,19.30
2021,04,18,09,52,19.40
2021,04,18,09,53,19.40
2021,04,18,09,54,19.40
2021,04,18,09,55,19.40
2021,04,18,09,56,19.50
2021,04,18,09,57,19.60
2021,04,18,09,58,19.60
2021,04,18,09,59,19.70
2021,04,18,10,00,19.70
2021,04,18,10,01,19.70
2021,04,18,10,02,19.70
2021,04,18,10,03,19.80
2021,04,18,10,04,19.80
2021,04,18,10,05,20.00
2021,04,18,10,06,20.10
2021,04,18,10,07,20.20
2021,04,18,10,08,20.20
2021,04,18,10,09,20.30
2021,04,18,10,10,20.40
2021,04,18,10,11,20.50
2021,04,18,10,12,20.60
2021,04,18,10,13,20.70
2021,04,18,10,14,20.80
2021,04,18,10,15,20.80
2021,04,18,10,16,20.80
2021,04,18,10,17,20.80
2021,04,18,10,18,20.80
2021,04,18,10,19,20.80
2021,04,18,10,20,20.80
2021,04,18,10,21,20.70
2021,04,18,10,22,20.70
2021,04,18,10,23,20.80
2021,04,18,10,24,20.80
2021,04,18,10,25,20.90
2021,04,18,10,26,21.00
2021,04,18,10,27,21.00
2021,04,18,10,28,21.00
2021,04,18,10,29,21.00
2021,04,18,10,30,21.00
2021,04,18,10,31,21.00
2021,04,18,10,32,21.00
2021,04,18,10,33,21.00
2021,04,18,10,34,21.10
2021,04,18,10,35,21.10
2021,04,18,10,36,21.20
2021,04,18,10,37,21.20
2021,04,18,10,38,21.30
2021,04,18,10,39,21.40
2021,04,18,10,40,21.50
2021,04,18,10,41,21.50
2021,04,18,10,42,21.60
2021,04,18,10,43,21.60
2021,04,18,10,44,21.60
2021,04,18,10,45,21.60
2021,04,18,10,46,21.60
2021,04,18,10,47,21.70
2021,04,18,10,48,21.70
2021,04,18,10,49,21.70
2021,04,18,10,50,21.70
2021,04,18,10,51,21.80
2021,04,18,10,52,21.80
2021,04,18,10,53,21.90
2021,04,18,10,54,22.00
2021,04,18,10,55,22.00
2021,04,18,10,56,22.00
2021,04,18,10,57,22.00
2021,04,18,10,58,21.90
2021,04,18,10,59,21.80
2021,04,18,11,00,21.70
2021,04,18,11,01,21.70
2021,04,18,11,02,21.60
2021,04,18,11,03,21.60
2021,04,18,11,04,21.70
2021,04,18,11,05,21.80
2021,04,18,11,06,21.80
2021,04,18,11,07,21.80
2021,04,18,11,08,21.80
2021,04,18,11,09,21.80
2021,04,18,11,10,21.80
2021,04,18,11,11,21.80
2021,04,18,11,12,21.80
2021,04,18,11,13,21.80
2021,04,18,11,14,21.80
2021,04,18,11,15,21.80
2021,04,18,11,16,21.90
2021,04,18,11,17,22.00
2021,04,18,11,18,22.10
2021,04,18,11,19,22.10
2021,04,18,11,20,22.00
2021,04,18,11,21,22.00
2021,04,18,11,22,21.90
2021,04,18,11,23,22.00
2021,04,18,11,24,22.00
2021,04,18,11,25,22.10
2021,04,18,11,26,22.20
2021,04,18,11,27,22.30
2021,04,18,11,28,22.30
2021,04,18,11,29,22.20
2021,04,18,11,30,22.10
2021,04,18,11,31,22.10
2021,04,18,11,32,22.10
2021,04,18,11,33,22.10
2021,04,18,11,34,22.20
2021,04,18,11,35,22.30
2021,04,18,11,36,22.40
2021,04,18,11,37,22.40
2021,04,18,11,38,22.40
2021,04,18,11,39,22.40
2021,04,18,11,40,22.30
2021,04,18,11,41,22.30
2021,04,18,11,42,22.30
2021,04,18,11,43,22.30
2021,04,18,11,44,22.40
2021,04,18,11,45,22.50
2021,04,18,11,46,22.50
2021,04,18,11,47,22.70
2021,04,18,11,48,22.80
2021,04,18,11,49,23.00
2021,04,18,11,50,23.10
2021,04,18,11,51,23.10
2021,04,18,11,52,23.10
2021,04,18,11,53,23.00
2021,04,18,11,54,22.90
2021,04,18,11,55,22.80
2021,04,18,11,56,22.80
2021,04,18,11,57,22.70
2021,04,18,11,58,22.50
2021,04,18,11,59,22.40
2021,04,18,12,00,22.30
2021,04,18,12,01,22.20
2021,04,18,12,02,22.20
2021,04,18,12,03,22.20
2021,04,18,12,04,22.20
2021,04,18,12,05,22.20
2021,04,18,12,06,22.20
2021,04,18,12,07,22.20
2021,04,18,12,08,22.20
2021,04,18,12,09,22.20
2021,04,18,12,10,22.20
2021,04,18,12,11,22.10
2021,04,18,12,12,22.10
2021,04,18,12,13,22.10
2021,04,18,12,14,22.20
2021,04,18,12,15,22.20
2021,04,18,12,16,22.20
2021,04,18,12,17,22.30
2021,04,18,12,18,22.30
2021,04,18,12,19,22.40
2021,04,18,12,20,22.50
2021,04,18,12,21,22.50
2021,04,18,12,22,22.70
2021,04,18,12,23,22.70
2021,04,18,12,24,22.80
2021,04,18,12,25,22.90
2021,04,18,12,26,22.90
2021,04,18,12,27,23.00
2021,04,18,12,28,23.10
2021,04,18,12,29,23.10
2021,04,18,12,30,23.20
2021,04,18,12,31,23.10
2021,04,18,12,32,23.00
2021,04,18,12,33,22.90
2021,04,18,12,34,22.80
2021,04,18,12,35,22.70
2021,04,18,12,36,22.50
2021,04,18,12,37,22.40
2021,04,18,12,38,22.30
2021,04,18,12,39,22.20
2021,04,18,12,40,22.20
2021,04,18,12,41,22.20
2021,04,18,12,42,22.20
2021,04,18,12,43,22.30
2021,04,18,12,44,22.40
2021,04,18,12,45,22.50
2021,04,18,12,46,22.70
2021,04,18,12,47,22.80
2021,04,18,12,48,23.00
2021,04,18,12,49,23.20
2021,04,18,12,50,23.30
2021,04,18,12,51,23.30
2021,04,18,12,52,23.30
2021,04,18,12,53,23.30
2021,04,18,12,54,23.40
2021,04,18,12,55,23.50
2021,04,18,12,56,23.60
2021,04,18,12,57,23.70
2021,04,18,12,58,23.80
2021,04,18,12,59,23.80
2021,04,18,13,00,23.80
2021,04,18,13,01,23.80
2021,04,18,13,02,23.70
2021,04,18,13,03,23.70
2021,04,18,13,04,23.70
2021,04,18,13,05,23.80
2021,04,18,13,06,23.80
2021,04,18,13,07,23.80
2021,04,18,13,08,23.70
2021,04,18,13,09,23.60
2021,04,18,13,10,23.40
2021,04,18,13,11,23.30
2021,04,18,13,12,23.10
2021,04,18,13,13,22.90
2021,04,18,13,14,22.80
2021,04,18,13,15,22.80
2021,04,18,13,16,22.80
2021,04,18,13,17,22.90
2021,04,18,13,18,23.10
2021,04,18,13,19,23.20
2021,04,18,13,20,23.30
2021,04,18,13,21,23.40
2021,04,18,13,22,23.50
2021,04,18,13,23,23.70
2021,04,18,13,24,23.80
2021,04,18,13,25,23.80
2021,04,18,13,26,23.90
2021,04,18,13,27,23.90
2021,04,18,13,28,23.90
2021,04,18,13,29,24.00
2021,04,18,13,30,24.00
2021,04,18,13,31,24.10
2021,04,18,13,32,24.10
2021,04,18,13,33,24.10
2021,04,18,13,34,24.10
2021,04,18,13,35,24.20
2021,04,18,13,36,24.20
2021,04,18,13,37,24.30
2021,04,18,13,38,24.50
2021,04,18,13,39,24.50
2021,04,18,13,40,24.60
2021,04,18,13,41,24.60
2021,04,18,13,42,24.60
2021,04,18,13,43,24.50
2021,04,18,13,44,24.50
2021,04,18,13,45,24.50
2021,04,18,13,46,24.50
2021,04,18,13,47,24.60
2021,04,18,13,48,24.70
2021,04,18,13,49,24.80
2021,04,18,13,50,24.90
2021,04,18,13,51,24.90
2021,04,18,13,52,24.80
2021,04,18,13,53,24.80
2021,04,18,13,54,24.80
2021,04,18,13,55,24.80
2021,04,18,13,56,24.80
2021,04,18,13,57,24.90
2021,04,18,13,58,24.80
2021,04,18,13,59,24.60
2021,04,18,14,00,24.40
2021,04,18,14,01,24.20
2021,04,18,14,02,24.10
2021,04,18,14,03,24.00
2021,04,18,14,04,24.00
2021,04,18,14,05,24.00
2021,04,18,14,06,24.10
2021,04,18,14,07,24.10
2021,04,18,14,08,24.10
2021,04,18,14,09,24.10
2021,04,18,14,10,24.00
2021,04,18,14,11,24.00
2021,04,18,14,12,24.00
2021,04,18,14,13,24.00
2021,04,18,14,14,24.00
2021,04,18,14,15,24.10
2021,04,18,14,16,24.30
2021,04,18,14,17,24.40
2021,04,18,14,18,24.60
2021,04,18,14,19,24.60
2021,04,18,14,20,24.70
2021,04,18,14,21,24.70
2021,04,18,14,22,24.70
2021,04,18,14,23,24.70
2021,04,18,14,24,24.70
2021,04,18,14,25,24.80
2021,04,18,14,26,24.80
2021,04,18,14,27,24.80
2021,04,18,14,28,24.70
2021,04,18,14,29,24.70
2021,04,18,14,30,24.70
2021,04,18,14,31,24.70
2021,04,18,14,32,24.70
2021,04,18,14,33,24.70
2021,04,18,14,34,24.70
2021,04,18,14,35,24.70
2021,04,18,14,36,24.70
2021,04,18,14,37,24.70
2021,04,18,14,38,24.70
2021,04,18,14,39,24.80
2021,04,18,14,40,24.80
2021,04,18,14,41,24.80
2021,04,18,14,42,24.80
2021,04,18,14,43,24.70
2021,04,18,14,44,24.70
2021,04,18,14,45,24.70
2021,04,18,14,46,24.60
2021,04,18,14,47,24.60
2021,04,18,14,48,24.50
2021,04,18,14,49,24.50
2021,04,18,14,50,24.40
2021,04,18,14,51,24.40
2021,04,18,14,52,24.30
2021,04,18,14,53,24.20
2021,04,18,14,54,24.10
2021,04,18,14,55,24.00
2021,04,18,14,56,23.90
2021,04,18,14,57,23.90
2021,04,18,14,58,23.80
2021,04,18,14,59,23.70
2021,04,18,15,00,23.60
2021,04,18,15,01,23.50
2021,04,18,15,02,23.40
2021,04,18,15,03,23.30
2021,04,18,15,04,23.20
2021,04,18,15,05,23.20
2021,04,18,15,06,23.10
2021,04,18,15,07,23.10
2021,04,18,15,08,23.10
2021,04,18,15,09,23.20
2021,04,18,15,10,23.20
2021,04,18,15,11,23.20
2021,04,18,15,12,23.20
2021,04,18,15,13,23.20
2021,04,18,15,14,23.20
2021,04,18,15,15,23.10
2021,04,18,15,16,23.10
2021,04,18,15,17,23.10
2021,04,18,15,18,23.10
2021,04,18,15,19,23.10
2021,04,18,15,20,23.10
2021,04,18,15,21,23.10
2021,04,18,15,22,23.10
2021,04,18,15,23,23.20
2021,04,18,15,24,23.20
2021,04,18,15,25,23.20
2021,04,18,15,26,23.20
2021,04,18,15,27,23.20
2021,04,18,15,28,23.20
2021,04,18,15,29,23.20
2021,04,18,15,30,23.20
2021,04,18,15,31,23.10
2021,04,18,15,32,23.10
2021,04,18,15,33,23.10
2021,04,18,15,34,23.10
2021,04,18,15,35,23.10
2021,04,18,15,36,23.10
2021,04,18,15,37,23.00
2021,04,18,15,38,22.90
2021,04,18,15,39,22.90
2021,04,18,15,40,22.80
2021,04,18,15,41,22.80
2021,04,18,15,42,22.80
2021,04,18,15,43,22.80
2021,04,18,15,44,22.70
2021,04,18,15,45,22.70
2021,04,18,15,46,22.60
2021,04,18,15,47,22.50
2021,04,18,15,48,22.50
2021,04,18,15,49,22.40
2021,04,18,15,50,22.40
2021,04,18,15,51,22.40
2021,04,18,15,52,22.30
2021,04,18,15,53,22.30
2021,04,18,15,54,22.30
2021,04,18,15,55,22.30
2021,04,18,15,56,22.30
2021,04,18,15,57,22.30
2021,04,18,15,58,22.30
2021,04,18,15,59,22.20
2021,04,18,16,00,22.20
2021,04,18,16,01,22.20
2021,04,18,16,02,22.20
2021,04,18,16,03,22.20
2021,04,18,16,04,22.10
2021,04,18,16,05,22.10
2021,04,18,16,06,22.10
2021,04,18,16,07,22.10
2021,04,18,16,08,22.10
2021,04,18,16,09,22.10
2021,04,18,16,10,22.00
2021,04,18,16,11,22.00
2021,04,18,16,12,22.00
2021,04,18,16,13,22.00
2021,04,18,16,14,22.00
2021,04,18,16,15,22.00
2021,04,18,16,16,22.00
2021,04,18,16,17,22.00
2021,04,18,16,18,22.00
2021,04,18,16,19,22.00
2021,04,18,16,20,21.90
2021,04,18,16,21,21.90
2021,04,18,16,22,21.90
2021,04,18,16,23,21.90
2021,04,18,16,24,21.90
2021,04,18,16,25,21.90
2021,04,18,16,26,21.90
2021,04,18,16,27,21.90
2021,04,18,16,28,21.90
2021,04,18,16,29,21.80
2021,04,18,16,30,21.80
2021,04,18,16,31,21.80
2021,04,18,16,32,21.80
2021,04,18,16,33,21.80
2021,04,18,16,34,21.70
2021,04,18,16,35,21.70
2021,04,18,16,36,21.70
2021,04,18,16,37,21.60
2021,04,18,16,38,21.60
2021,04,18,16,39,21.50
2021,04,18,16,40,21.50
2021,04,18,16,41,21.50
2021,04,18,16,42,21.40
2021,04,18,16,43,21.40
2021,04,18,16,44,21.40
2021,04,18,16,45,21.40
2021,04,18,16,46,21.30
2021,04,18,16,47,21.30
2021,04,18,16,48,21.30
2021,04,18,16,49,21.30
2021,04,18,16,50,21.30
2021,04,18,16,51,21.30
2021,04,18,16,52,21.30
2021,04,18,16,53,21.30
2021,04,18,16,54,21.30
2021,04,18,16,55,21.20
2021,04,18,16,56,21.20
2021,04,18,16,57,21.20
2021,04,18,16,58,21.20
2021,04,18,16,59,21.20
2021,04,18,17,00,21.10
2021,04,18,17,01,21.10
2021,04,18,17,02,21.10
2021,04,18,17,03,21.10
2021,04,18,17,04,21.00
2021,04,18,17,05,21.00
2021,04,18,17,06,21.00
2021,04,18,17,07,21.00
2021,04,18,17,08,20.90
2021,04,18,17,09,20.90
2021,04,18,17,10,20.90
2021,04,18,17,11,20.90
2021,04,18,17,12,20.90
2021,04,18,17,13,20.90
2021,04,18,17,14,20.80
2021,04,18,17,15,20.80
2021,04,18,17,16,20.80
2021,04,18,17,17,20.80
2021,04,18,17,18,20.80
2021,04,18,17,19,20.70
2021,04,18,17,20,20.70
2021,04,18,17,21,20.70
2021,04,18,17,22,20.70
2021,04,18,17,23,20.70
2021,04,18,17,24,20.70
2021,04,18,17,25,20.60
2021,04,18,17,26,20.60
2021,04,18,17,27,20.60
2021,04,18,17,28,20.60
2021,04,18,17,29,20.60